| time (UTC) | temp C | wind direction | speed KPH | gust KPH | rain 1hr cm | rain 24hr cm | rain mn cm | humidity % | barometer mb |
| 20260901203510 | 26 | 152 | 12.9 | 17.7 | 0.00 | 0.00 | 0.00 | 27 | 1019.2 |
| 20260901203009 | 26 | 203 | 8.0 | 16.1 | 0.00 | 0.00 | 0.00 | 27 | 1019.4 |
| 20260901203004 | 26 | 203 | 8.0 | 16.1 | 0.00 | 0.00 | 0.00 | 27 | 1004.9 |
| 20260901202505 | 26 | 306 | 3.2 | 12.9 | 0.00 | 0.00 | 0.00 | 28 | 1019.4 |
| 20260901202006 | 26 | 314 | 6.4 | 16.1 | 0.00 | 0.00 | 0.00 | 28 | 1019.4 |
| 20260901201508 | 26 | 201 | 9.7 | 16.1 | 0.00 | 0.00 | 0.00 | 27 | 1005.0 |
| 20260901201005 | 26 | 227 | 6.4 | 16.1 | 0.00 | 0.00 | 0.00 | 28 | 1019.5 |
| 20260901200504 | 25 | 149 | 6.4 | 16.1 | 0.00 | 0.00 | 0.00 | 31 | 1019.5 |
| 20260901200009 | 25 | 163 | 3.2 | 9.7 | 0.00 | 0.00 | 0.00 | 30 | 1005.2 |
| 20260901195505 | 25 | 187 | 3.2 | 11.3 | 0.00 | 0.00 | 0.00 | 28 | 1019.7 |
| 20260901195005 | 25 | 9 | 3.2 | 17.7 | 0.00 | 0.00 | 0.00 | 27 | 1019.7 |
| 20260901194505 | 25 | 10 | 9.7 | 22.5 | 0.00 | 0.00 | 0.00 | 27 | 1019.8 |
| 20260901194006 | 26 | 298 | 11.3 | 22.5 | 0.00 | 0.00 | 0.00 | 28 | 1019.6 |
| 20260901193504 | 26 | 248 | 8.0 | 14.5 | 0.00 | 0.00 | 0.00 | 28 | 1019.9 |
| 20260901193006 | 25 | 307 | 8.0 | 14.5 | 0.00 | 0.00 | 0.00 | 28 | 1019.9 |
| 20260901193004 | 25 | 307 | 6.4 | 14.5 | 0.00 | 0.00 | 0.00 | 28 | 1005.4 |
| 20260901192504 | 25 | 295 | 8.0 | 19.3 | 0.00 | 0.00 | 0.00 | 32 | 1019.9 |
| 20260901192006 | 25 | 281 | 9.7 | 20.9 | 0.00 | 0.00 | 0.00 | 30 | 1019.9 |
| 20260901191504 | 25 | 225 | 9.7 | 38.6 | 0.00 | 0.00 | 0.00 | 30 | 1020.0 |
| 20260901191502 | 25 | 225 | 9.7 | 38.6 | 0.00 | 0.00 | 0.00 | 30 | 1005.5 |
| 20260901191006 | 25 | 269 | 16.1 | 38.6 | 0.00 | 0.00 | 0.00 | 32 | 1019.9 |
| 20260901190004 | 25 | 173 | 6.4 | 17.7 | 0.00 | 0.00 | 0.00 | 31 | 1005.4 |
| 20260901185005 | 25 | 290 | 6.4 | 19.3 | 0.00 | 0.00 | 0.00 | 32 | 1020.2 |
| 20260901184505 | 24 | 261 | 6.4 | 19.3 | 0.00 | 0.00 | 0.00 | 32 | 1020.4 |
| 20260901184503 | 24 | 261 | 4.8 | 19.3 | 0.00 | 0.00 | 0.00 | 32 | 1005.9 |
| 20260901184006 | 25 | 291 | 8.0 | 19.3 | 0.00 | 0.00 | 0.00 | 31 | 1020.5 |
| 20260901183504 | 25 | 264 | 11.3 | 22.5 | 0.00 | 0.00 | 0.00 | 32 | 1020.5 |
| 20260901183006 | 25 | 284 | 12.9 | 22.5 | 0.00 | 0.00 | 0.00 | 32 | 1020.5 |
| 20260901183002 | 25 | 284 | 12.9 | 22.5 | 0.00 | 0.00 | 0.00 | 32 | 1005.9 |
| 20260901182506 | 25 | 198 | 3.2 | 9.7 | 0.00 | 0.00 | 0.00 | 35 | 1020.5 |
| 20260901182006 | 24 | 304 | 1.6 | 9.7 | 0.00 | 0.00 | 0.00 | 33 | 1020.6 |
| 20260901181505 | 24 | 55 | 1.6 | 8.0 | 0.00 | 0.00 | 0.00 | 32 | 1020.7 |
| 20260901181007 | 24 | 300 | 4.8 | 12.9 | 0.00 | 0.00 | 0.00 | 32 | 1020.7 |
| 20260901180505 | 23 | 5 | 6.4 | 14.5 | 0.00 | 0.00 | 0.00 | 35 | 1020.8 |
| 20260901180007 | 23 | 319 | 8.0 | 16.1 | 0.00 | 0.00 | 0.00 | 35 | 1021.0 |
| 20260901180003 | 23 | 319 | 6.4 | 16.1 | 0.00 | 0.00 | 0.00 | 35 | 1006.3 |
| 20260901175504 | 23 | 303 | 6.4 | 17.7 | 0.00 | 0.00 | 0.00 | 34 | 1021.0 |
| 20260901175007 | 23 | 248 | 8.0 | 14.5 | 0.00 | 0.00 | 0.00 | 37 | 1021.0 |
| 20260901174513 | 23 | 333 | 4.8 | 14.5 | 0.00 | 0.00 | 0.00 | 40 | 1006.4 |
| 20260901174506 | 23 | 333 | 6.4 | 14.5 | 0.00 | 0.00 | 0.00 | 40 | 1021.0 |
| 20260901174008 | 22 | 244 | 4.8 | 14.5 | 0.00 | 0.00 | 0.00 | 45 | 1021.1 |
| 20260901173005 | 22 | 265 | 8.0 | 16.1 | 0.00 | 0.00 | 0.00 | 45 | 1021.2 |
| 20260901173003 | 22 | 265 | 8.0 | 16.1 | 0.00 | 0.00 | 0.00 | 45 | 1006.6 |
| 20260901172504 | 22 | 275 | 4.8 | 16.1 | 0.00 | 0.00 | 0.00 | 45 | 1021.3 |
| 20260901172006 | 21 | 246 | 6.4 | 16.1 | 0.00 | 0.00 | 0.00 | 49 | 1021.4 |
| 20260901171502 | 21 | 222 | 4.8 | 12.9 | 0.00 | 0.00 | 0.00 | 48 | 1006.9 |
| 20260901171005 | 21 | 284 | 6.4 | 12.9 | 0.00 | 0.00 | 0.00 | 47 | 1021.6 |
| 20260901170505 | 21 | 244 | 6.4 | 12.9 | 0.00 | 0.00 | 0.00 | 47 | 1021.6 |
| 20260901170007 | 21 | 250 | 4.8 | 14.5 | 0.00 | 0.00 | 0.00 | 48 | 1021.6 |
| 20260901170003 | 21 | 250 | 4.8 | 14.5 | 0.00 | 0.00 | 0.00 | 48 | 1006.9 |
| 20260901165505 | 21 | 284 | 4.8 | 20.9 | 0.00 | 0.00 | 0.00 | 51 | 1021.7 |
| 20260901165005 | 21 | 282 | 8.0 | 20.9 | 0.00 | 0.00 | 0.00 | 51 | 1021.7 |
| 20260901164504 | 20 | 281 | 6.4 | 17.7 | 0.00 | 0.00 | 0.00 | 51 | 1021.8 |
| 20260901164502 | 20 | 281 | 6.4 | 17.7 | 0.00 | 0.00 | 0.00 | 51 | 1007.1 |
| 20260901164010 | 20 | 306 | 8.0 | 14.5 | 0.00 | 0.00 | 0.00 | 52 | 1021.8 |
| 20260901163505 | 20 | 255 | 4.8 | 12.9 | 0.00 | 0.00 | 0.00 | 54 | 1021.7 |
| 20260901163007 | 20 | 260 | 4.8 | 8.0 | 0.00 | 0.00 | 0.00 | 54 | 1021.7 |
| 20260901163004 | 20 | 260 | 3.2 | 8.0 | 0.00 | 0.00 | 0.00 | 54 | 1007.0 |
| 20260901162505 | 20 | 270 | 3.2 | 12.9 | 0.00 | 0.00 | 0.00 | 54 | 1021.6 |
| 20260901162007 | 19 | 270 | 4.8 | 17.7 | 0.00 | 0.00 | 0.00 | 55 | 1021.7 |
| 20260901161506 | 19 | 242 | 8.0 | 16.1 | 0.00 | 0.00 | 0.00 | 54 | 1021.6 |
| 20260901161502 | 19 | 242 | 6.4 | 16.1 | 0.00 | 0.00 | 0.00 | 54 | 1006.9 |
| 20260901161005 | 19 | 246 | 6.4 | 16.1 | 0.00 | 0.00 | 0.00 | 55 | 1021.4 |
| 20260901160507 | 19 | 251 | 4.8 | 12.9 | 0.00 | 0.00 | 0.00 | 55 | 1021.4 |
| 20260901160006 | 18 | 263 | 4.8 | 14.5 | 0.00 | 0.00 | 0.00 | 55 | 1021.3 |
| 20260901155505 | 18 | 281 | 8.0 | 17.7 | 0.00 | 0.00 | 0.00 | 56 | 1021.3 |
| 20260901155005 | 18 | 283 | 8.0 | 17.7 | 0.00 | 0.00 | 0.00 | 56 | 1021.3 |
| 20260901154505 | 18 | 245 | 6.4 | 17.7 | 0.00 | 0.00 | 0.00 | 57 | 1021.2 |
| 20260901154502 | 18 | 245 | 4.8 | 17.7 | 0.00 | 0.00 | 0.00 | 57 | 1006.6 |
| 20260901153005 | 18 | 293 | 4.8 | 14.5 | 0.00 | 0.00 | 0.00 | 57 | 1021.1 |
| 20260901153002 | 18 | 293 | 4.8 | 14.5 | 0.00 | 0.00 | 0.00 | 57 | 1006.4 |
| 20260901152005 | 18 | 215 | 4.8 | 17.7 | 0.00 | 0.00 | 0.00 | 58 | 1021.1 |
| 20260901151504 | 18 | 301 | 8.0 | 19.3 | 0.00 | 0.00 | 0.00 | 57 | 1021.1 |
| 20260901151501 | 18 | 301 | 8.0 | 19.3 | 0.00 | 0.00 | 0.00 | 57 | 1006.4 |
| 20260901151006 | 18 | 262 | 9.7 | 19.3 | 0.00 | 0.00 | 0.00 | 57 | 1021.0 |
| 20260901150505 | 18 | 210 | 8.0 | 19.3 | 0.00 | 0.00 | 0.00 | 58 | 1020.8 |
| 20260901150008 | 18 | 252 | 8.0 | 19.3 | 0.00 | 0.00 | 0.00 | 59 | 1006.1 |
| 20260901145505 | 17 | 230 | 4.8 | 11.3 | 0.00 | 0.00 | 0.00 | 62 | 1021.0 |
| 20260901145005 | 17 | 266 | 4.8 | 8.0 | 0.00 | 0.00 | 0.00 | 64 | 1020.9 |
| 20260901144503 | 17 | 232 | 1.6 | 8.0 | 0.00 | 0.00 | 0.00 | 66 | 1006.2 |
| 20260901144005 | 17 | 240 | 3.2 | 8.0 | 0.00 | 0.00 | 0.00 | 65 | 1021.0 |
| 20260901143505 | 17 | 212 | 3.2 | 9.7 | 0.00 | 0.00 | 0.00 | 65 | 1020.7 |
| 20260901143006 | 17 | 236 | 3.2 | 14.5 | 0.00 | 0.00 | 0.00 | 66 | 1020.7 |
| 20260901143002 | 17 | 236 | 1.6 | 14.5 | 0.00 | 0.00 | 0.00 | 66 | 1006.0 |
| 20260901142506 | 17 | 248 | 4.8 | 14.5 | 0.00 | 0.00 | 0.00 | 65 | 1020.7 |
| 20260901142006 | 16 | 252 | 6.4 | 11.3 | 0.00 | 0.00 | 0.00 | 67 | 1020.6 |
| 20260901141506 | 16 | 246 | 4.8 | 8.0 | 0.00 | 0.00 | 0.00 | 69 | 1020.6 |
| 20260901141503 | 16 | 246 | 3.2 | 8.0 | 0.00 | 0.00 | 0.00 | 69 | 1005.8 |
| 20260901140504 | 16 | 248 | 1.6 | 8.0 | 0.00 | 0.00 | 0.00 | 69 | 1020.6 |
| 20260901140007 | 16 | 248 | 4.8 | 12.9 | 0.00 | 0.00 | 0.00 | 68 | 1020.6 |
| 20260901140002 | 16 | 248 | 3.2 | 12.9 | 0.00 | 0.00 | 0.00 | 68 | 1005.8 |
| 20260901135504 | 16 | 225 | 4.8 | 12.9 | 0.00 | 0.00 | 0.00 | 68 | 1020.6 |
| 20260901135006 | 16 | 230 | 3.2 | 11.3 | 0.00 | 0.00 | 0.00 | 69 | 1020.7 |
| 20260901134505 | 16 | 243 | 4.8 | 11.3 | 0.00 | 0.00 | 0.00 | 68 | 1020.7 |
| 20260901134502 | 16 | 243 | 4.8 | 11.3 | 0.00 | 0.00 | 0.00 | 68 | 1005.9 |
| 20260901133504 | 16 | 255 | 4.8 | 9.7 | 0.00 | 0.00 | 0.00 | 71 | 1020.5 |
| 20260901133005 | 15 | 280 | 3.2 | 9.7 | 0.00 | 0.00 | 0.00 | 73 | 1020.5 |
| 20260901133003 | 15 | 280 | 3.2 | 9.7 | 0.00 | 0.00 | 0.00 | 73 | 1005.6 |
| 20260901132505 | 15 | 238 | 1.6 | 9.7 | 0.00 | 0.00 | 0.00 | 74 | 1020.3 |
| 20260901131505 | 15 | 233 | 4.8 | 11.3 | 0.00 | 0.00 | 0.00 | 76 | 1020.3 |
| 20260901131502 | 15 | 233 | 3.2 | 11.3 | 0.00 | 0.00 | 0.00 | 76 | 1005.4 |
| 20260901131006 | 15 | 223 | 4.8 | 12.9 | 0.00 | 0.00 | 0.00 | 77 | 1020.2 |
| 20260901130505 | 15 | 200 | 6.4 | 12.9 | 0.00 | 0.00 | 0.00 | 77 | 1020.1 |
| 20260901130057 | 15 | 173 | 6.4 | 12.9 | 0.00 | 0.00 | 0.00 | 77 | 1005.2 |
| 20260901130007 | 15 | 227 | 8.0 | 12.9 | 0.00 | 0.00 | 0.00 | 77 | 1020.1 |
| 20260901130003 | 15 | 227 | 6.4 | 12.9 | 0.00 | 0.00 | 0.00 | 77 | 1005.2 |
| 20260901125504 | 15 | 205 | 4.8 | 12.9 | 0.00 | 0.00 | 0.00 | 77 | 1019.9 |
| 20260901125006 | 15 | 196 | 6.4 | 16.1 | 0.00 | 0.00 | 0.00 | 77 | 1019.9 |
| 20260901124505 | 15 | 201 | 6.4 | 16.1 | 0.00 | 0.00 | 0.00 | 77 | 1019.8 |
| 20260901124006 | 15 | 202 | 6.4 | 12.9 | 0.00 | 0.00 | 0.00 | 77 | 1019.9 |
| 20260901123504 | 15 | 209 | 6.4 | 14.5 | 0.00 | 0.00 | 0.00 | 76 | 1019.8 |
| 20260901123006 | 15 | 240 | 6.4 | 14.5 | 0.00 | 0.00 | 0.00 | 76 | 1004.7 |
| 20260901122505 | 15 | 233 | 6.4 | 11.3 | 0.00 | 0.00 | 0.00 | 76 | 1019.6 |
| 20260901122004 | 15 | 265 | 6.4 | 12.9 | 0.00 | 0.00 | 0.00 | 76 | 1019.5 |
| 20260901121502 | 15 | 206 | 4.8 | 11.3 | 0.00 | 0.00 | 0.00 | 77 | 1004.6 |
| 20260901121005 | 15 | 201 | 3.2 | 8.0 | 0.00 | 0.00 | 0.00 | 77 | 1019.4 |
| 20260901120006 | 15 | 234 | 4.8 | 11.3 | 0.00 | 0.00 | 0.00 | 77 | 1019.4 |
| 20260901114504 | 14 | 226 | 4.8 | 8.0 | 0.00 | 0.00 | 0.00 | 79 | 1019.5 |
| 20260901114005 | 14 | 226 | 1.6 | 4.8 | 0.00 | 0.00 | 0.00 | 79 | 1019.5 |
| 20260901113505 | 14 | 226 | 0.0 | 3.2 | 0.00 | 0.00 | 0.00 | 79 | 1019.6 |
| 20260901113006 | 14 | 226 | 0.0 | 9.7 | 0.00 | 0.00 | 0.00 | 79 | 1019.6 |
| 20260901113003 | 14 | 226 | 0.0 | 9.7 | 0.00 | 0.00 | 0.00 | 79 | 1004.8 |
| 20260901112504 | 14 | 173 | 3.2 | 8.0 | 0.00 | 0.00 | 0.00 | 80 | 1019.9 |
| 20260901112006 | 14 | 173 | 4.8 | 8.0 | 0.00 | 0.00 | 0.00 | 80 | 1019.8 |
| 20260901111503 | 14 | 173 | 3.2 | 6.4 | 0.00 | 0.00 | 0.00 | 80 | 1019.9 |
| 20260901111000 | 14 | 173 | 3.2 | 6.4 | 0.00 | 0.00 | 0.00 | 80 | 1019.9 |
| 20260901110003 | 14 | 173 | 1.6 | 6.4 | 0.00 | 0.00 | 0.00 | 80 | 1005.3 |
| 20260901105504 | 14 | 173 | 3.2 | 6.4 | 0.00 | 0.00 | 0.00 | 79 | 1020.1 |
| 20260901104505 | 14 | 173 | 3.2 | 4.8 | 0.00 | 0.00 | 0.00 | 79 | 1020.2 |
| 20260901104502 | 14 | 173 | 1.6 | 4.8 | 0.00 | 0.00 | 0.00 | 79 | 1005.4 |
| 20260901104006 | 14 | 173 | 1.6 | 4.8 | 0.00 | 0.00 | 0.00 | 80 | 1020.3 |
| 20260901103504 | 14 | 173 | 1.6 | 4.8 | 0.00 | 0.00 | 0.00 | 80 | 1020.2 |
| 20260901103005 | 14 | 173 | 0.0 | 3.2 | 0.00 | 0.00 | 0.00 | 80 | 1020.2 |
| 20260901103002 | 14 | 173 | 0.0 | 3.2 | 0.00 | 0.00 | 0.00 | 80 | 1005.4 |
| 20260901102504 | 14 | 173 | 0.0 | 4.8 | 0.00 | 0.00 | 0.00 | 79 | 1020.3 |
| 20260901102006 | 14 | 173 | 1.6 | 4.8 | 0.00 | 0.00 | 0.00 | 79 | 1020.2 |
| 20260901101503 | 14 | 173 | 0.0 | 3.2 | 0.00 | 0.00 | 0.00 | 80 | 1005.6 |
| 20260901101005 | 14 | 173 | 0.0 | 3.2 | 0.00 | 0.00 | 0.00 | 79 | 1020.4 |
| 20260901100504 | 14 | 173 | 0.0 | 4.8 | 0.00 | 0.00 | 0.00 | 78 | 1020.3 |
| 20260901100009 | 14 | 173 | 0.0 | 4.8 | 0.00 | 0.00 | 0.00 | 78 | 1020.4 |
| 20260901100003 | 14 | 173 | 0.0 | 4.8 | 0.00 | 0.00 | 0.00 | 78 | 1005.7 |
| 20260901095006 | 14 | 173 | 3.2 | 9.7 | 0.00 | 0.00 | 0.00 | 78 | 1020.6 |
| 20260901094507 | 14 | 173 | 4.8 | 9.7 | 0.00 | 0.00 | 0.00 | 79 | 1006.0 |
| 20260901094505 | 14 | 173 | 6.4 | 9.7 | 0.00 | 0.00 | 0.00 | 79 | 1020.7 |
| 20260901093504 | 13 | 112 | 4.8 | 6.4 | 0.00 | 0.00 | 0.00 | 80 | 1020.7 |
| 20260901093006 | 13 | 112 | 1.6 | 3.2 | 0.00 | 0.00 | 0.00 | 80 | 1020.7 |
| 20260901093002 | 13 | 112 | 0.0 | 3.2 | 0.00 | 0.00 | 0.00 | 80 | 1006.0 |
| 20260901092504 | 13 | 112 | 1.6 | 6.4 | 0.00 | 0.00 | 0.00 | 79 | 1020.7 |
| 20260901092005 | 14 | 112 | 3.2 | 6.4 | 0.00 | 0.00 | 0.00 | 79 | 1020.8 |
| 20260901091505 | 13 | 112 | 4.8 | 6.4 | 0.00 | 0.00 | 0.00 | 79 | 1020.8 |
| 20260901091503 | 13 | 112 | 4.8 | 6.4 | 0.00 | 0.00 | 0.00 | 79 | 1006.2 |
| 20260901091005 | 13 | 112 | 4.8 | 6.4 | 0.00 | 0.00 | 0.00 | 80 | 1020.8 |
| 20260901090504 | 13 | 112 | 3.2 | 3.2 | 0.00 | 0.00 | 0.00 | 81 | 1021.0 |
| 20260901090104 | 13 | 112 | 0.0 | 0.0 | 0.00 | 0.00 | 0.00 | 81 | 1006.3 |
| 20260901090000 | 13 | 112 | 0.0 | 0.0 | 0.00 | 0.00 | 0.00 | 81 | 1021.0 |
| 20260901085504 | 13 | 112 | 0.0 | 3.2 | 0.00 | 0.00 | 0.00 | 81 | 1021.0 |
| 20260901085006 | 13 | 112 | 1.6 | 3.2 | 0.00 | 0.00 | 0.00 | 81 | 1021.0 |
| 20260901084504 | 13 | 112 | 0.0 | 4.8 | 0.00 | 0.00 | 0.00 | 81 | 1021.0 |
| 20260901084502 | 13 | 112 | 0.0 | 4.8 | 0.00 | 0.00 | 0.00 | 81 | 1006.3 |
| 20260901084005 | 13 | 112 | 1.6 | 9.7 | 0.00 | 0.00 | 0.00 | 80 | 1020.9 |
| 20260901083505 | 13 | 112 | 8.0 | 9.7 | 0.00 | 0.00 | 0.00 | 79 | 1021.0 |
| 20260901083058 | 13 | 184 | 3.2 | 6.4 | 0.00 | 0.00 | 0.00 | 78 | 1006.5 |
| 20260901083005 | 13 | 184 | 3.2 | 4.8 | 0.00 | 0.00 | 0.00 | 78 | 1021.2 |
| 20260901083003 | 13 | 184 | 1.6 | 4.8 | 0.00 | 0.00 | 0.00 | 78 | 1006.5 |
| 20260901082506 | 13 | 184 | 1.6 | 4.8 | 0.00 | 0.00 | 0.00 | 78 | 1021.2 |
| 20260901082005 | 13 | 184 | 1.6 | 3.2 | 0.00 | 0.00 | 0.00 | 78 | 1021.5 |
| 20260901081504 | 13 | 184 | 1.6 | 3.2 | 0.00 | 0.00 | 0.00 | 78 | 1021.5 |
| 20260901081004 | 13 | 184 | 1.6 | 4.8 | 0.00 | 0.00 | 0.00 | 78 | 1021.5 |
| 20260901080504 | 13 | 184 | 1.6 | 3.2 | 0.00 | 0.00 | 0.00 | 79 | 1021.6 |
| 20260901080007 | 13 | 184 | 1.6 | 3.2 | 0.00 | 0.00 | 0.00 | 80 | 1021.6 |
| 20260901080005 | 13 | 184 | 1.6 | 3.2 | 0.00 | 0.00 | 0.00 | 80 | 1006.9 |
| 20260901075504 | 13 | 184 | 0.0 | 4.8 | 0.00 | 0.00 | 0.00 | 80 | 1021.7 |
| 20260901075005 | 13 | 184 | 0.0 | 4.8 | 0.00 | 0.00 | 0.00 | 80 | 1021.6 |
| 20260901074504 | 12 | 184 | 3.2 | 6.4 | 0.00 | 0.00 | 0.00 | 81 | 1021.7 |
| 20260901074502 | 12 | 184 | 1.6 | 6.4 | 0.00 | 0.00 | 0.00 | 81 | 1007.0 |
| 20260901074005 | 12 | 184 | 4.8 | 6.4 | 0.00 | 0.00 | 0.00 | 82 | 1021.7 |
| 20260901073504 | 12 | 184 | 1.6 | 4.8 | 0.00 | 0.00 | 0.00 | 81 | 1021.8 |
| 20260901073006 | 12 | 184 | 0.0 | 3.2 | 0.00 | 0.00 | 0.00 | 81 | 1021.8 |
| 20260901073002 | 12 | 184 | 0.0 | 3.2 | 0.00 | 0.00 | 0.00 | 81 | 1007.1 |
| 20260901072504 | 12 | 184 | 0.0 | 1.6 | 0.00 | 0.00 | 0.00 | 80 | 1021.8 |
| 20260901072001 | 12 | 184 | 0.0 | 4.8 | 0.00 | 0.00 | 0.00 | 79 | 1021.7 |
| 20260901071600 | 12 | 184 | 0.0 | 4.8 | 0.00 | 0.00 | 0.00 | 79 | 1006.9 |
| 20260901071502 | 12 | 184 | 0.0 | 4.8 | 0.00 | 0.00 | 0.00 | 79 | 1021.6 |
| 20260901071006 | 12 | 184 | 3.2 | 4.8 | 0.00 | 0.00 | 0.00 | 79 | 1021.6 |
| 20260901070505 | 13 | 184 | 1.6 | 3.2 | 0.00 | 0.00 | 0.00 | 77 | 1021.6 |
| 20260901070007 | 13 | 184 | 1.6 | 3.2 | 0.00 | 0.00 | 0.00 | 75 | 1021.6 |
| 20260901070002 | 13 | 184 | 0.0 | 3.2 | 0.00 | 0.00 | 0.00 | 75 | 1007.0 |
| 20260901064505 | 15 | 184 | 1.6 | 4.8 | 0.00 | 0.00 | 0.00 | 73 | 1021.6 |
| 20260901064503 | 15 | 184 | 1.6 | 4.8 | 0.00 | 0.00 | 0.00 | 73 | 1006.9 |
| 20260901064006 | 15 | 184 | 1.6 | 3.2 | 0.00 | 0.00 | 0.00 | 73 | 1021.5 |
| 20260901063504 | 15 | 184 | 0.0 | 1.6 | 0.00 | 0.00 | 0.00 | 73 | 1021.3 |
| 20260901063005 | 14 | 184 | 0.0 | 3.2 | 0.00 | 0.00 | 0.00 | 73 | 1021.2 |
| 20260901062505 | 15 | 184 | 1.6 | 3.2 | 0.00 | 0.00 | 0.00 | 73 | 1021.4 |
| 20260901061502 | 15 | 184 | 0.0 | 3.2 | 0.00 | 0.00 | 0.00 | 72 | 1006.7 |
| 20260901061006 | 15 | 184 | 1.6 | 3.2 | 0.00 | 0.00 | 0.00 | 72 | 1021.5 |
| 20260901060505 | 15 | 184 | 0.0 | 6.4 | 0.00 | 0.00 | 0.00 | 72 | 1021.5 |
| 20260901060008 | 15 | 184 | 4.8 | 6.4 | 0.00 | 0.00 | 0.00 | 73 | 1021.6 |
| 20260901060004 | 15 | 184 | 3.2 | 6.4 | 0.00 | 0.00 | 0.00 | 73 | 1006.9 |
| 20260901055505 | 15 | 184 | 1.6 | 4.8 | 0.00 | 0.03 | 0.00 | 73 | 1021.6 |
| 20260901055006 | 15 | 184 | 1.6 | 4.8 | 0.00 | 0.03 | 0.00 | 74 | 1021.7 |
| 20260901054558 | 15 | 184 | 1.6 | 4.8 | 0.00 | 0.03 | 0.00 | 74 | 1006.9 |
| 20260901054500 | 15 | 184 | 1.6 | 4.8 | 0.00 | 0.03 | 0.00 | 74 | 1021.6 |
| 20260901054006 | 15 | 184 | 0.0 | 3.2 | 0.00 | 0.03 | 0.00 | 75 | 1021.8 |
| 20260901053504 | 15 | 184 | 1.6 | 3.2 | 0.00 | 0.03 | 0.00 | 75 | 1021.8 |
| 20260901053007 | 15 | 184 | 0.0 | 6.4 | 0.00 | 0.03 | 0.00 | 75 | 1021.8 |
| 20260901053004 | 15 | 184 | 0.0 | 6.4 | 0.00 | 0.03 | 0.00 | 75 | 1007.0 |
| 20260901052504 | 15 | 184 | 3.2 | 6.4 | 0.00 | 0.03 | 0.00 | 75 | 1021.9 |
| 20260901051503 | 15 | 184 | 1.6 | 4.8 | 0.00 | 0.03 | 0.00 | 75 | 1007.0 |
| 20260901051006 | 15 | 184 | 3.2 | 6.4 | 0.00 | 0.03 | 0.00 | 74 | 1021.8 |
| 20260901050506 | 15 | 184 | 1.6 | 14.5 | 0.00 | 0.03 | 0.00 | 73 | 1021.8 |
| 20260901050006 | 15 | 184 | 8.0 | 14.5 | 0.00 | 0.03 | 0.00 | 74 | 1022.0 |
| 20260901050004 | 15 | 184 | 8.0 | 14.5 | 0.00 | 0.03 | 0.00 | 74 | 1007.2 |
| 20260901045506 | 15 | 189 | 6.4 | 14.5 | 0.00 | 0.05 | 0.00 | 75 | 1022.0 |
| 20260901044507 | 15 | 171 | 11.3 | 16.1 | 0.00 | 0.05 | 0.00 | 76 | 1021.8 |
| 20260901044006 | 15 | 144 | 11.3 | 12.9 | 0.00 | 0.05 | 0.00 | 76 | 1022.0 |
| 20260901043007 | 15 | 138 | 9.7 | 12.9 | 0.00 | 0.05 | 0.00 | 76 | 1021.8 |
| 20260901043003 | 15 | 138 | 8.0 | 12.9 | 0.00 | 0.05 | 0.00 | 76 | 1007.0 |
| 20260901042505 | 15 | 161 | 6.4 | 11.3 | 0.00 | 0.05 | 0.00 | 76 | 1021.6 |
| 20260901041505 | 15 | 120 | 8.0 | 11.3 | 0.00 | 0.05 | 0.00 | 75 | 1021.6 |
| 20260901041503 | 15 | 120 | 6.4 | 11.3 | 0.00 | 0.05 | 0.00 | 75 | 1006.8 |
| 20260901040505 | 15 | 265 | 3.2 | 9.7 | 0.00 | 0.05 | 0.00 | 74 | 1021.7 |
| 20260901040003 | 15 | 265 | 1.6 | 9.7 | 0.00 | 0.05 | 0.00 | 74 | 1006.9 |
| 20260901035505 | 16 | 265 | 3.2 | 8.0 | 0.00 | 0.05 | 0.00 | 73 | 1021.6 |
| 20260901035007 | 16 | 265 | 3.2 | 8.0 | 0.00 | 0.05 | 0.00 | 73 | 1021.6 |
| 20260901034506 | 16 | 220 | 4.8 | 9.7 | 0.00 | 0.05 | 0.00 | 73 | 1021.8 |
| 20260901034007 | 16 | 275 | 1.6 | 11.3 | 0.00 | 0.05 | 0.00 | 72 | 1022.0 |
| 20260901033505 | 16 | 275 | 4.8 | 17.7 | 0.00 | 0.05 | 0.00 | 72 | 1021.9 |
| 20260901033059 | 16 | 273 | 3.2 | 20.9 | 0.00 | 0.05 | 0.00 | 72 | 1007.0 |
| 20260901033001 | 16 | 273 | 6.4 | 20.9 | 0.00 | 0.05 | 0.00 | 72 | 1021.8 |
| 20260901032505 | 16 | 304 | 9.7 | 22.5 | 0.00 | 0.05 | 0.00 | 72 | 1021.8 |
| 20260901032006 | 16 | 302 | 11.3 | 24.1 | 0.00 | 0.05 | 0.00 | 72 | 1021.8 |
| 20260901031505 | 16 | 287 | 16.1 | 27.4 | 0.00 | 0.05 | 0.00 | 71 | 1021.8 |
| 20260901031503 | 16 | 287 | 14.5 | 27.4 | 0.00 | 0.05 | 0.00 | 71 | 1007.1 |
| 20260901031001 | 17 | 288 | 17.7 | 32.2 | 0.00 | 0.05 | 0.00 | 68 | 1021.8 |
| 20260901030506 | 17 | 311 | 17.7 | 29.0 | 0.00 | 0.05 | 0.00 | 67 | 1021.8 |
| 20260901030007 | 17 | 290 | 14.5 | 27.4 | 0.00 | 0.05 | 0.00 | 65 | 1021.9 |
| 20260901030005 | 17 | 290 | 12.9 | 27.4 | 0.00 | 0.05 | 0.00 | 65 | 1007.3 |
| 20260901025506 | 17 | 312 | 16.1 | 22.5 | 0.00 | 0.05 | 0.00 | 63 | 1021.9 |
| 20260901025006 | 18 | 312 | 9.7 | 19.3 | 0.00 | 0.05 | 0.00 | 62 | 1021.8 |
| 20260901024505 | 18 | 277 | 8.0 | 27.4 | 0.00 | 0.05 | 0.00 | 61 | 1021.8 |
| 20260901024502 | 18 | 277 | 8.0 | 27.4 | 0.00 | 0.05 | 0.00 | 61 | 1007.2 |
| 20260901024006 | 18 | 284 | 11.3 | 22.5 | 0.00 | 0.05 | 0.00 | 60 | 1021.7 |
| 20260901023506 | 18 | 328 | 8.0 | 22.5 | 0.00 | 0.05 | 0.00 | 59 | 1021.5 |
| 20260901023006 | 18 | 342 | 11.3 | 22.5 | 0.00 | 0.05 | 0.00 | 59 | 1021.2 |
| 20260901023003 | 18 | 262 | 9.7 | 22.5 | 0.00 | 0.05 | 0.00 | 59 | 1006.6 |
| 20260901022501 | 19 | 210 | 12.9 | 33.8 | 0.00 | 0.05 | 0.00 | 57 | 1021.2 |
| 20260901022007 | 20 | 331 | 14.5 | 33.8 | 0.00 | 0.05 | 0.00 | 52 | 1021.0 |
| 20260901021504 | 20 | 241 | 9.7 | 17.7 | 0.00 | 0.05 | 0.00 | 47 | 1020.8 |
| 20260901021006 | 20 | 200 | 3.2 | 6.4 | 0.00 | 0.05 | 0.00 | 47 | 1020.3 |
| 20260901020008 | 21 | 200 | 3.2 | 9.7 | 0.00 | 0.05 | 0.00 | 45 | 1019.7 |
| 20260901020005 | 21 | 200 | 1.6 | 9.7 | 0.00 | 0.05 | 0.00 | 45 | 1005.1 |
| 20260901015505 | 21 | 200 | 6.4 | 12.9 | 0.00 | 0.05 | 0.00 | 45 | 1019.7 |
| 20260901015007 | 21 | 180 | 9.7 | 12.9 | 0.00 | 0.05 | 0.00 | 45 | 1019.5 |
| 20260901014504 | 21 | 170 | 9.7 | 16.1 | 0.00 | 0.05 | 0.00 | 46 | 1019.4 |
| 20260901014502 | 21 | 170 | 8.0 | 16.1 | 0.00 | 0.05 | 0.00 | 46 | 1004.8 |
| 20260901014006 | 21 | 176 | 9.7 | 16.1 | 0.00 | 0.05 | 0.00 | 46 | 1019.3 |
| 20260901013007 | 21 | 142 | 9.7 | 16.1 | 0.00 | 0.05 | 0.00 | 46 | 1019.3 |
| 20260901013004 | 21 | 142 | 9.7 | 16.1 | 0.00 | 0.05 | 0.00 | 46 | 1004.6 |
| 20260901012012 | 21 | 140 | 14.5 | 20.9 | 0.00 | 0.05 | 0.00 | 46 | 1019.3 |
| 20260901011506 | 21 | 162 | 12.9 | 19.3 | 0.00 | 0.05 | 0.00 | 46 | 1019.3 |
| 20260901011006 | 21 | 151 | 9.7 | 17.7 | 0.00 | 0.05 | 0.00 | 46 | 1019.3 |
| 20260901010505 | 21 | 161 | 11.3 | 19.3 | 0.00 | 0.05 | 0.00 | 46 | 1019.3 |
| 20260901010007 | 21 | 136 | 12.9 | 20.9 | 0.00 | 0.05 | 0.00 | 45 | 1019.3 |
| 20260901010004 | 21 | 136 | 12.9 | 20.9 | 0.00 | 0.05 | 0.00 | 45 | 1004.6 |
| 20260901005506 | 21 | 150 | 16.1 | 25.7 | 0.00 | 0.05 | 0.00 | 44 | 1019.2 |
| 20260901005007 | 21 | 159 | 17.7 | 27.4 | 0.00 | 0.05 | 0.00 | 43 | 1019.3 |
| 20260901004505 | 22 | 158 | 17.7 | 30.6 | 0.00 | 0.05 | 0.00 | 43 | 1019.5 |
| 20260901003506 | 23 | 127 | 20.9 | 27.4 | 0.00 | 0.05 | 0.00 | 40 | 1019.7 |
| 20260901003007 | 23 | 109 | 16.1 | 32.2 | 0.00 | 0.05 | 0.00 | 40 | 1019.7 |
| 20260901002505 | 23 | 105 | 22.5 | 32.2 | 0.00 | 0.05 | 0.00 | 41 | 1019.7 |
| 20260901002006 | 23 | 76 | 19.3 | 29.0 | 0.00 | 0.05 | 0.00 | 43 | 1019.6 |
| 20260901001502 | 23 | 92 | 16.1 | 29.0 | 0.00 | 0.05 | 0.00 | 42 | 1005.2 |
| 20260901001006 | 24 | 96 | 19.3 | 29.0 | 0.00 | 0.05 | 0.00 | 41 | 1019.7 |
| 20260901000505 | 24 | 94 | 16.1 | 25.7 | 0.00 | 0.05 | 0.00 | 42 | 1019.8 |
| 20260901000004 | 24 | 92 | 16.1 | 25.7 | 0.00 | 0.05 | 0.00 | 40 | 1005.4 |
| 20260831235505 | 25 | 110 | 12.9 | 24.1 | 0.00 | 0.05 | 0.00 | 39 | 1019.9 |
| 20260831234506 | 25 | 107 | 17.7 | 27.4 | 0.00 | 0.05 | 0.00 | 38 | 1005.3 |
| 20260831234007 | 25 | 113 | 14.5 | 20.9 | 0.00 | 0.05 | 0.00 | 37 | 1019.9 |
| 20260831233506 | 25 | 109 | 12.9 | 19.3 | 0.00 | 0.05 | 0.00 | 38 | 1019.8 |
| 20260831233004 | 25 | 104 | 11.3 | 19.3 | 0.00 | 0.05 | 0.00 | 38 | 1005.5 |
| 20260831232008 | 25 | 78 | 9.7 | 19.3 | 0.00 | 0.05 | 0.00 | 37 | 1020.0 |
| 20260831231505 | 25 | 98 | 12.9 | 19.3 | 0.00 | 0.05 | 0.00 | 37 | 1020.0 |
| 20260831231503 | 25 | 98 | 12.9 | 19.3 | 0.00 | 0.05 | 0.00 | 37 | 1005.8 |
| 20260831230506 | 25 | 67 | 9.7 | 17.7 | 0.00 | 0.05 | 0.00 | 38 | 1020.0 |
| 20260831230009 | 24 | 57 | 9.7 | 17.7 | 0.00 | 0.05 | 0.00 | 37 | 1020.0 |
| 20260831230004 | 24 | 57 | 9.7 | 17.7 | 0.00 | 0.05 | 0.00 | 37 | 1005.9 |
| 20260831225505 | 24 | 87 | 11.3 | 14.5 | 0.00 | 0.05 | 0.00 | 38 | 1020.1 |
| 20260831225002 | 24 | 83 | 6.4 | 12.9 | 0.00 | 0.05 | 0.00 | 37 | 1020.1 |
| 20260831224505 | 24 | 99 | 8.0 | 14.5 | 0.00 | 0.05 | 0.00 | 37 | 1020.3 |
| 20260831224503 | 24 | 99 | 8.0 | 14.5 | 0.00 | 0.05 | 0.00 | 37 | 1006.2 |
| 20260831224007 | 25 | 84 | 9.7 | 17.7 | 0.00 | 0.05 | 0.00 | 36 | 1020.3 |
| 20260831223505 | 25 | 78 | 6.4 | 17.7 | 0.00 | 0.05 | 0.00 | 34 | 1020.2 |
| 20260831223005 | 25 | 106 | 3.2 | 14.5 | 0.00 | 0.05 | 0.00 | 34 | 1020.4 |
| 20260831223003 | 25 | 106 | 3.2 | 14.5 | 0.00 | 0.05 | 0.00 | 34 | 1006.3 |
| 20260831222505 | 25 | 90 | 8.0 | 17.7 | 0.00 | 0.05 | 0.00 | 33 | 1020.5 |
| 20260831221503 | 25 | 128 | 1.6 | 14.5 | 0.00 | 0.05 | 0.00 | 32 | 1006.6 |
| 20260831220011 | 25 | 94 | 8.0 | 14.5 | 0.00 | 0.05 | 0.00 | 32 | 1020.7 |
| 20260831220003 | 25 | 94 | 8.0 | 14.5 | 0.00 | 0.05 | 0.00 | 32 | 1006.7 |
| 20260831215504 | 25 | 130 | 6.4 | 12.9 | 0.00 | 0.05 | 0.00 | 33 | 1020.7 |
| 20260831214504 | 25 | 91 | 4.8 | 14.5 | 0.00 | 0.05 | 0.00 | 35 | 1020.6 |
| 20260831213505 | 25 | 154 | 6.4 | 11.3 | 0.00 | 0.05 | 0.00 | 33 | 1020.9 |
| 20260831213003 | 25 | 124 | 4.8 | 11.3 | 0.00 | 0.05 | 0.00 | 35 | 1007.0 |
| 20260831212505 | 24 | 163 | 8.0 | 14.5 | 0.00 | 0.05 | 0.00 | 35 | 1021.1 |
| 20260831212007 | 24 | 150 | 4.8 | 14.5 | 0.00 | 0.05 | 0.00 | 35 | 1021.1 |
| 20260831211505 | 24 | 89 | 6.4 | 14.5 | 0.00 | 0.05 | 0.00 | 35 | 1021.1 |
| 20260831211503 | 24 | 89 | 4.8 | 14.5 | 0.00 | 0.05 | 0.00 | 35 | 1007.1 |
| 20260831211006 | 25 | 119 | 11.3 | 14.5 | 0.00 | 0.05 | 0.00 | 34 | 1021.2 |
| 20260831210505 | 25 | 112 | 9.7 | 14.5 | 0.00 | 0.05 | 0.00 | 35 | 1021.1 |
| 20260831210006 | 25 | 149 | 9.7 | 16.1 | 0.00 | 0.05 | 0.00 | 35 | 1021.1 |
| 20260831210003 | 25 | 149 | 8.0 | 16.1 | 0.00 | 0.05 | 0.00 | 35 | 1007.1 |
| 20260831205006 | 25 | 174 | 11.3 | 19.3 | 0.00 | 0.05 | 0.00 | 34 | 1021.3 |
| 20260831204505 | 24 | 171 | 11.3 | 16.1 | 0.00 | 0.05 | 0.00 | 34 | 1021.4 |
| 20260831204503 | 24 | 171 | 9.7 | 16.1 | 0.00 | 0.05 | 0.00 | 34 | 1007.3 |
| 20260831204005 | 24 | 148 | 8.0 | 14.5 | 0.00 | 0.05 | 0.00 | 34 | 1021.4 |